Simultaneous Nadir Overpasses (SNOs) Predictions

Prediction of SNOs between LANDSAT-8 and NPP Satellite Orbit:

Table of predicted SNOs for the next 14.0 days since TLE Epoch: 5/30/2015
Index Date (LANDSAT-8) Time (LANDSAT-8) Lat,Lon (LANDSAT-8) SZA (LANDSAT-8 ) Date (NPP) Time (NPP) Lat,Lon (NPP) SZA (NPP ) Distance(km) Time Diff (sec)
1 05/30/2015 10:33:23 -71.48,-160.06 130.37 05/30/2015 10:32:16 -71.53,-162.72 130.27 94.14 67
2 05/30/2015 11:23:05 70.57, 6.16 48.73 05/30/2015 11:22:44 70.57, 6.21 48.73 2.00 21
3 05/30/2015 12:12:34 -70.51, 173.70 131.34 05/30/2015 12:13:26 -70.50, 173.65 131.35 2.77 52
4 06/02/2015 02:50:09 -70.71, -45.41 131.51 06/02/2015 02:48:56 -70.77, -45.66 131.43 11.85 73
5 06/02/2015 03:39:37 70.56, 122.01 48.34 06/02/2015 03:39:38 70.54, 122.02 48.33 1.36 1
6 06/02/2015 04:29:07 -70.44, -70.53 131.78 06/02/2015 04:30:20 -70.47, -70.54 131.76 2.59 73
7 06/04/2015 19:06:41 -70.63, 70.35 131.92 06/04/2015 19:05:47 -70.64, 70.32 131.90 1.86 54
8 06/04/2015 19:56:08 70.53,-122.16 47.98 06/04/2015 19:56:31 70.52,-122.18 47.98 0.85 23
9 06/04/2015 20:45:52 -69.65, 44.22 132.87 06/04/2015 20:46:58 -69.65, 46.47 132.92 86.89 66
10 06/07/2015 11:23:13 -70.59,-173.83 132.23 06/07/2015 11:22:41 -70.62,-173.88 132.20 3.21 32
11 06/07/2015 12:12:40 70.49, -6.35 47.66 06/07/2015 12:13:25 70.50, -6.38 47.68 2.01 45
12 06/10/2015 02:50:10 70.92, 134.91 47.86 06/10/2015 02:48:59 71.00, 133.94 47.97 36.43 71
13 06/10/2015 03:39:45 -70.55, -58.02 132.51 06/10/2015 03:39:34 -70.54, -57.99 132.51 1.25 11
14 06/10/2015 04:29:12 70.44, 109.46 47.38 06/10/2015 04:30:18 70.43, 109.50 47.37 1.62 66
15 06/12/2015 19:06:46 70.64,-109.63 47.41 06/12/2015 19:05:46 70.62,-109.67 47.39 3.20 60
16 06/12/2015 19:56:16 -70.54, 57.85 132.70 06/12/2015 19:56:28 -70.52, 57.80 132.72 3.07 12
17 06/12/2015 20:45:53 69.88,-135.46 46.67 06/12/2015 20:47:02 69.88,-133.90 46.63 59.49 69




NCC Satellite Simultaneous Nadir Overpasses (SNOs) Prediction Service
